Погода Карпогоры

Хотите узнать прогноз погоды Карпогоры? Тогда Вам сюда: Погода Карпогоры

Поиск расширенной информации на нашем сайте:

Полезная информация:

Новости сайта



02.01.2020
Опубликован Долгосрочный прогноз погоды по городам России и ближнего зарубежья на январь 2020 года.
Карты: Прогноз на январь и февраль 2020 года, Сравнение прогнозируемой аномалии приземной температуры воздуха на январь 2020 года по разным моделям.




Погода Карпогоры - сегодня

Время (UTC), дата Ветер
(°,м/с) 
Видим.   Явления Облачность Т
(°С)
Тd
(°С)
f(%) Тe
(°С)
Pmin
(гПа)
dP
(гПа)
Po
(мм)
O2
(г/м3)
Тmin Tmax R s Состояние
почвы
00 30.11.20 150 (ЮВ) 10 км    10/10 240 м 
[St]
-6.1 -6.7 96 -6  1037.9  -0.8  772  319           
03 30.11.20 160 (Ю) 10 км    10/10 270 м 
[St]
-5.5 -6.1 96 -8  1036.6  -1.2  771  318        равномерный
сухой снег
100% 
06 30.11.20 170 (Ю) 20000 м    10/10 240 м 
[St]
-4.7 -5.3 96 -6  1035.7  -0.9  771  317           
09 30.11.20 190 (Ю) 4{10}  20000 м    10/8 300 м средняя 
[St|Ac As]
-4.7 -5.5 94 -8  1035.8  0.1  771  317           
12 30.11.20 160 (Ю) 20000 м    10/10 270 м 
[St]
-3.6 -4.2 96 -5  1033.9  -1.8  769  315           
15 30.11.20 150 (ЮВ) 20000 м    10/8 330 м средняя 
[St|Ac As]
-2.5 -3.4 94 -5  1032  -1.8  768  313    -2.5       
18 30.11.20 180 (Ю) 10 км    10/10 400 м 
[Sc]
-1.9 -3.1 91 -4  1030.5  -1.5  767  312           
21 30.11.20 170 (Ю) 10 км  снежные зёрна{морось}  10/10 210 м 
[St]
-1.2 -2 94 -3  1028.4  -2.1  765  310           
00 01.12.20 180 (Ю) 10 км  {снег, морось}  10/10 300 м 
[St]
-0.4 -1.6 92 -3  1027.1  -1.2  764  309           
03 01.12.20 180 (Ю) 10 км  снежные зёрна  10/10 300 м 
[St]
-0.7 -1.7 93 -3  1026.4  -0.7  764  309  -3      равномерный
сухой снег
100% 
06 01.12.20 170 (Ю) 10 км  снежные зёрна  10/10 330 м 
[St]
-1.2 -2.4 92 -4  1026.1  -0.3  764  309           
09 01.12.20 180 (Ю) 10 км  слаб. ливневой снег  10/8 500 м кучево-дожд., средняя 
[Cb cap|Ac und]
-1.3 -2.7 90 -4  1025.8  -0.2  763  309           
12 01.12.20 180 (Ю) 4000 м  слаб. ливневой снег  10/8 420 м кучево-дожд., средняя 
[Cb cap|Ac und]
-1.8 -2.9 92 -5  1025.2  -0.6  763  310           
15 01.12.20 180 (Ю) 4000 м  слаб. ливневой снег  10/8 630 м кучево-дожд., средняя 
[Cb cap|Ac und]
-2.7 -3.3 96 -5  1024.9  -0.4  763  311    -0.7     
18 01.12.20 200 (Ю) 4000 м  слаб. ливневой снег  10/10 540 м кучево-дожд. 
[Cb cap]
-2 -3.5 89 -4  1025.2  0.4  763  310           
21 01.12.20 200 (Ю) 4000 м  слаб. ливневой снег  10/10 210 м кучево-дожд. 
[Cb cap]
-1.9 -3 92 -4  1025.8  0.6  763  310           
00 02.12.20 190 (Ю) 20000 м  {ливн. осадки}  10/8 570 м кучево-дожд., средняя 
[Cb cap|Ac As]
-1.2 -3.1 87 -4  1025.5  -0.2  763  309           
03 02.12.20 180 (Ю) 4000 м  слаб. снег  10/10 300 м 
[Frnb|Ns]
-1.9 -2.5 96 -4  1024.8  -0.7  763  310  -2.7    0.7  равномерный
сухой снег
100% 
06 02.12.20 210 (ЮЗ) 10 км  в посл. час ливневой снег  10/8 500 м кучево-дожд., средняя 
[Cb cap|Ac As]
-1.2 -2.3 92 -2  1025.1  0.3  763  309           
09 02.12.20 200 (Ю) 10 км  слаб. ливневой снег  10/8 420 м кучево-дожд., средняя 
[Cb cap|Ac As]
-0.6 -1 97 -1  1026.8  1.7  764  309           
12 02.12.20 220 (ЮЗ) 20000 м  в посл. час ливневой снег  10/10 300 м кучево-дожд. 
[Cb cap]
+0.1 -0.4 96 -1  1028.1  1.3  765  308           
15 02.12.20 210 (ЮЗ) 4000 м  слаб. ливневой снег  10/10 450 м кучево-дожд. 
[Cb cap]
-0 -0.3 98 +1  1029.2  1.1  766  309    +0.2  0.8     
18 02.12.20 200 (Ю) 4000 м  слаб. ливневой снег  10/8 900 м кучево-дожд., средняя 
[Cb cap|Ac As]
-0.3 -1 95 -1  1029.7  0.5  766  309           
21 02.12.20 200 (Ю) 10 км  {ливн. осадки}  9/5 300 м кучево-дожд., средняя 
[Cb cap|Ac trans]
-0.3 -1 95 -1  1029.7  -0.1  766  309           
00 03.12.20 200 (Ю) 4000 м  слаб. ливневой снег  10/8 800 м кучево-дожд., средняя 
[Cb cap|Ac As]
-0.3 -0.9 96 -2  1030.4  0.7  767  309           
Время (UTC), дата Ветер
(°,м/с) 
Видим.   Явления Облачность Т
(°С)
Тd
(°С)
f(%) Тe
(°С)
Pmin
(гПа)
dP
(гПа)
Po
(мм)
O2
(г/м3)
Тmin Tmax R s Состояние
почвы

Для получения пояснительной информации подведите курсор к названию столбца.

ПОГОДА Карпогоры - архив

Всё, что Вы хотите узнать о погоде Карпогоры - удобно и подробно!

Выберите нужную дату (начиная с 1 января 2019* года) и нажмите кнопку "Найти".
Будут отображены архивные сводки погоды по пункту Карпогоры, начиная с указанной даты.


Отображать данные в формате CSV (для использования в таблицах Excel)


Внимание! Наш архив погоды предназначен исключительно для личного некоммерческого использования в познавательных целях. Если Вам необходимы официальные справки о состоянии погоды (для производственных, юридических, коммерческих и т.п. целей), обращайтесь в органы Росгидромета.

*Примечание: данная дата относится к архиву по метеостанциям СССР (Россия, СНГ, Балтия).
Архив по метеостанциям Зарубежной Европы и Азии (кроме Китая) хранится 10 дней, по другим регионам земного шара (Китай, Африка, Америка, Австралия, Океания) - 1 день.

Карпогоры - район местоположения метеостанции


Название, широта, долгота, высота метеостанции:
Карпогоры 64°ш. 44.4°д. 60 м над ур. моря [Российская Федерация]

Дополнительная информация

В oтличие oт бoльшинства пoгoдных сайтoв мы публикуем пoдрoбную метеoинфoрмацию в детальнoм прoфессиoнальнoм фoрмате.

Характеристики температуры и влажнoсти вoздуха измеряются на высoте 2 м в тени вдали oт зданий и деревьев.
Скoрoсть ветра измеряется на высoте 10 м (на урoвне рoста челoвека скoрoсть ветра ниже в 1.5-2 раза). Если метеoстанция нахoдится в гoрoде или в лесу, тo скoрoсть ветра занижена на 2-4 м/с пo сравнению с oткрытым местoм. Скoрoсть ветра над акватoриями крупных рек и oзёр, а также на вершинах хoлмoв на 2-5 м/с выше, чем в oбычных услoвиях.
Атмoсфернoе давление в разных тoчках местнoсти мoжет значительнo oтличаться oт давления на метеoстанции, в зависимoсти oт услoвий рельефа (при пoдъёме на 10 м давление пoнижается примернo на 1 мм рт.ст.).